Find Starlink 32551

NORAD ID: 62166 Int'l Des: 2024-225 Owner: SPXS Country: US Constellation: starlink operational
LEOCIRCULAR

Live-Position

3D-Globus wird geladen...

Über Starlink 32551

Beschreibung wird geladen...

Nächste Überflüge

Passes for default location (London). Set your location on the main map for personalized predictions.

Höhenverlauf

Loading altitude history...

Zweizeiliger Elementsatz

1 62166U 24225D 26125.50001156 .00045803 00000-0 38231-2 0 9999
2 62166 70.0020 21.1528 0002805 267.6660 192.0458 14.98313390 5802
Epoch: 5. Mai 2026 • Age: 11 hours

Aktueller Status

Höhe 588.1 km
Geschwindigkeit 7.57 km/s
Subsatellitenpunkt -46.79°S, 155.37°E
Startdatum 30. Nov. 2024
Alter 1.4 years
Typ internet

Technische Details

Klassifizierung Payload
Masse 730.00 kg
Trockenmasse 700.00 kg
Gesamtmasse 730.00 kg
Länge 0.30 m
Durchmesser 4.10 m
Spannweite 29.00 m
Form Box + pan
Hersteller SPXS
Bus-Typ Starlink V2M
Phasenstatus In Orbit
Besitzer/Staat SPXS/US

Most Searched